AFL205 ZBAD-UUEE

Flight info

Callsign AFL205
Flight time N/A
Altitude 39100
Route IDKEX B339 ASILA A575 INTIK
Aircraft A359/H-SDE2E3FGILRWXY/LB2

Departure

Time 2026-04-15 06:12
Airport Beijing Daxing International Airport (ZBAD)

Arrival

Time N/A
Airport Sheremetyevo International Airport (UUEE)
Time Latitude Longitude Altitude Speed Heading
2026-04-15 05:44 39.50759 116.41231 94 ft 0 kts 287°
2026-04-15 05:47 39.50754 116.41252 94 ft 2 kts 287°
2026-04-15 05:47 39.50750 116.41270 94 ft 2 kts 287°
2026-04-15 05:47 39.50745 116.41290 94 ft 2 kts 287°
2026-04-15 05:48 39.50742 116.41302 94 ft 2 kts 287°
2026-04-15 05:48 39.50736 116.41326 94 ft 2 kts 291°
2026-04-15 05:48 39.50732 116.41338 94 ft 2 kts 293°
2026-04-15 05:48 39.50726 116.41355 94 ft 2 kts 296°
2026-04-15 05:49 39.50719 116.41373 94 ft 2 kts 298°
2026-04-15 05:49 39.50711 116.41389 94 ft 2 kts 303°
2026-04-15 05:49 39.50703 116.41406 94 ft 2 kts 308°
2026-04-15 05:49 39.50693 116.41421 94 ft 2 kts 310°
2026-04-15 05:50 39.50684 116.41435 94 ft 2 kts 309°
2026-04-15 05:50 39.50674 116.41450 94 ft 1 kts 309°
2026-04-15 05:50 39.50673 116.41452 94 ft 0 kts 309°
2026-04-15 05:53 39.50676 116.41447 94 ft 0 kts 305°
2026-04-15 05:53 39.50678 116.41439 94 ft 1 kts 290°
2026-04-15 05:54 39.50679 116.41425 94 ft 1 kts 268°
2026-04-15 05:54 39.50677 116.41415 94 ft 2 kts 250°
2026-04-15 05:54 39.50668 116.41395 94 ft 2 kts 235°
2026-04-15 05:54 39.50653 116.41376 94 ft 3 kts 213°
2026-04-15 05:55 39.50630 116.41367 94 ft 3 kts 180°
2026-04-15 05:55 39.50597 116.41383 94 ft 4 kts 156°
2026-04-15 05:55 39.50577 116.41393 94 ft 4 kts 156°
2026-04-15 05:55 39.50546 116.41411 94 ft 5 kts 156°
2026-04-15 05:56 39.50511 116.41423 94 ft 5 kts 169°
2026-04-15 05:56 39.50472 116.41432 94 ft 5 kts 171°
2026-04-15 05:56 39.50429 116.41441 94 ft 6 kts 170°
2026-04-15 05:56 39.50368 116.41451 94 ft 6 kts 175°
2026-04-15 05:57 39.50337 116.41455 94 ft 6 kts 175°
2026-04-15 05:57 39.50289 116.41460 94 ft 7 kts 175°
2026-04-15 05:57 39.50237 116.41466 94 ft 7 kts 173°
2026-04-15 05:57 39.50182 116.41475 94 ft 8 kts 172°
2026-04-15 05:58 39.50106 116.41492 94 ft 7 kts 156°
2026-04-15 05:58 39.50081 116.41526 94 ft 8 kts 118°
2026-04-15 05:58 39.50062 116.41599 94 ft 8 kts 99°
2026-04-15 05:58 39.50065 116.41672 94 ft 7 kts 81°
2026-04-15 05:59 39.50074 116.41744 94 ft 8 kts 82°
2026-04-15 05:59 39.50083 116.41823 94 ft 9 kts 80°
2026-04-15 05:59 39.50090 116.41901 94 ft 9 kts 83°
2026-04-15 05:59 39.50098 116.41987 94 ft 9 kts 82°
2026-04-15 06:00 39.50106 116.42074 94 ft 10 kts 83°
2026-04-15 06:00 39.50120 116.42198 94 ft 10 kts 81°
2026-04-15 06:00 39.50128 116.42261 94 ft 10 kts 71°
2026-04-15 06:00 39.50186 116.42314 94 ft 11 kts
2026-04-15 06:01 39.50292 116.42297 94 ft 11 kts 353°
2026-04-15 06:01 39.50376 116.42285 94 ft 12 kts 353°
2026-04-15 06:01 39.50435 116.42276 94 ft 12 kts 353°
2026-04-15 06:01 39.50525 116.42262 94 ft 13 kts 352°
2026-04-15 06:02 39.50652 116.42242 94 ft 14 kts 353°
2026-04-15 06:02 39.50716 116.42232 94 ft 14 kts 353°
2026-04-15 06:02 39.50819 116.42216 94 ft 14 kts 351°
2026-04-15 06:02 39.50959 116.42194 94 ft 15 kts 353°
2026-04-15 06:03 39.51069 116.42176 94 ft 16 kts 352°
2026-04-15 06:03 39.51144 116.42163 94 ft 16 kts 352°
2026-04-15 06:03 39.51299 116.42140 94 ft 17 kts 353°
2026-04-15 06:03 39.51397 116.42142 94 ft 11 kts 34°
2026-04-15 06:04 39.51413 116.42186 94 ft 0 kts 91°
2026-04-15 06:04 39.51413 116.42187 94 ft 0 kts 89°
2026-04-15 06:04 39.51413 116.42188 94 ft 0 kts 82°
2026-04-15 06:04 39.51414 116.42193 94 ft 0 kts 82°
2026-04-15 06:05 39.51414 116.42199 94 ft 1 kts 82°
2026-04-15 06:05 39.51417 116.42220 94 ft 2 kts 82°
2026-04-15 06:05 39.51418 116.42235 94 ft 2 kts 82°
2026-04-15 06:05 39.51421 116.42262 94 ft 3 kts 82°
2026-04-15 06:06 39.51424 116.42295 94 ft 3 kts 82°
2026-04-15 06:06 39.51428 116.42333 94 ft 4 kts 82°
2026-04-15 06:06 39.51432 116.42378 94 ft 5 kts 83°
2026-04-15 06:06 39.51438 116.42445 94 ft 6 kts 83°
2026-04-15 06:07 39.51442 116.42482 94 ft 6 kts 83°
2026-04-15 06:07 39.51448 116.42542 94 ft 7 kts 83°
2026-04-15 06:07 39.51454 116.42609 94 ft 7 kts 83°
2026-04-15 06:07 39.51463 116.42707 94 ft 8 kts 81°
2026-04-15 06:08 39.51469 116.42759 94 ft 8 kts 83°
2026-04-15 06:08 39.51476 116.42841 94 ft 9 kts 83°
2026-04-15 06:08 39.51485 116.42929 94 ft 10 kts 83°
2026-04-15 06:08 39.51494 116.43024 94 ft 3 kts 83°
2026-04-15 06:09 39.51495 116.43045 94 ft 3 kts 83°
2026-04-15 06:09 39.51508 116.43076 94 ft 3 kts 43°
2026-04-15 06:09 39.51522 116.43087 94 ft 3 kts 22°
2026-04-15 06:09 39.51548 116.43100 94 ft 4 kts 20°
2026-04-15 06:10 39.51580 116.43115 94 ft 5 kts 19°
2026-04-15 06:10 39.51615 116.43132 94 ft 5 kts 20°
2026-04-15 06:10 39.51647 116.43171 94 ft 5 kts 62°
2026-04-15 06:10 39.51650 116.43211 94 ft 4 kts 97°
2026-04-15 06:11 39.51643 116.43264 94 ft 22 kts 101°
2026-04-15 06:11 39.51554 116.43731 94 ft 83 kts 103°
2026-04-15 06:11 39.51382 116.44681 94 ft 134 kts 102°
2026-04-15 06:11 39.51139 116.46048 95 ft 177 kts 102°
2026-04-15 06:12 39.50845 116.47716 275 ft 198 kts 105°
2026-04-15 06:12 39.50502 116.49512 596 ft 214 kts 104°
2026-04-15 06:12 39.50268 116.51404 1262 ft 211 kts 97°
2026-04-15 06:12 39.50135 116.53237 2047 ft 203 kts 97°
2026-04-15 06:13 39.49921 116.55728 2569 ft 220 kts 99°
2026-04-15 06:13 39.49710 116.57791 2934 ft 236 kts 99°
2026-04-15 06:13 39.49556 116.59209 3214 ft 244 kts 99°
2026-04-15 06:13 39.49311 116.61400 3789 ft 250 kts 100°
2026-04-15 06:14 39.49134 116.63649 4330 ft 259 kts 88°
2026-04-15 06:14 39.49877 116.66737 4816 ft 283 kts 65°
2026-04-15 06:14 39.50488 116.68285 4880 ft 301 kts 64°
2026-04-15 06:14 39.51512 116.70816 4882 ft 331 kts 64°
2026-04-15 06:15 39.52596 116.73552 4879 ft 357 kts 64°
2026-04-15 06:15 39.53700 116.76398 4874 ft 343 kts 65°
2026-04-15 06:15 39.55070 116.79981 4885 ft 323 kts 65°
2026-04-15 06:15 39.55719 116.81687 4885 ft 314 kts 65°
2026-04-15 06:16 39.56966 116.84969 4891 ft 296 kts 65°
2026-04-15 06:16 39.57854 116.87313 4896 ft 285 kts 65°
2026-04-15 06:16 39.58437 116.88854 4912 ft 296 kts 65°
2026-04-15 06:16 39.59394 116.91384 4884 ft 325 kts 65°
2026-04-15 06:17 39.60785 116.95064 4995 ft 356 kts 65°
2026-04-15 06:17 39.61516 116.96999 5457 ft 357 kts 65°
2026-04-15 06:17 39.62934 117.00759 6737 ft 346 kts 64°
2026-04-15 06:17 39.63961 117.03495 7720 ft 337 kts 64°
2026-04-15 06:18 39.64967 117.06179 8684 ft 327 kts 63°
2026-04-15 06:18 39.65939 117.08777 9634 ft 317 kts 63°
2026-04-15 06:18 39.66906 117.11287 10533 ft 308 kts 57°
2026-04-15 06:18 39.67767 117.12762 10800 ft 310 kts 39°
2026-04-15 06:19 39.69626 117.14179 11122 ft 316 kts 14°
2026-04-15 06:19 39.71798 117.14460 11398 ft 322 kts 351°
2026-04-15 06:19 39.74061 117.13998 11687 ft 333 kts 349°
2026-04-15 06:19 39.76380 117.13531 11945 ft 346 kts 349°
2026-04-15 06:20 39.79622 117.12907 12269 ft 363 kts 350°
2026-04-15 06:20 39.82175 117.12427 12511 ft 375 kts 350°
2026-04-15 06:20 39.84798 117.11941 12737 ft 386 kts 350°
2026-04-15 06:20 39.86591 117.11610 12952 ft 392 kts 350°
2026-04-15 06:21 39.89309 117.11111 13426 ft 396 kts 350°
2026-04-15 06:21 39.92930 117.10449 14117 ft 398 kts 350°
2026-04-15 06:21 39.95674 117.09946 14607 ft 401 kts 350°
2026-04-15 06:21 39.98474 117.09433 15073 ft 403 kts 350°
2026-04-15 06:22 40.00296 117.09096 15369 ft 405 kts 350°
2026-04-15 06:22 40.03112 117.08577 15832 ft 407 kts 349°
2026-04-15 06:22 40.05908 117.08060 16286 ft 410 kts 349°
2026-04-15 06:22 40.08769 117.07531 16731 ft 412 kts 349°
2026-04-15 06:23 40.11606 117.07008 17163 ft 415 kts 349°
2026-04-15 06:23 40.15418 117.06309 17721 ft 418 kts 349°
2026-04-15 06:23 40.17347 117.05954 18001 ft 420 kts 349°
2026-04-15 06:23 40.21237 117.05238 18568 ft 423 kts 349°
2026-04-15 06:24 40.23146 117.04887 18847 ft 424 kts 348°
2026-04-15 06:24 40.26074 117.04343 19282 ft 425 kts 348°
2026-04-15 06:24 40.29021 117.03798 19728 ft 426 kts 348°
2026-04-15 06:24 40.31960 117.03251 20132 ft 427 kts 348°
2026-04-15 06:25 40.34914 117.02703 20529 ft 429 kts 348°
2026-04-15 06:25 40.37882 117.02108 20918 ft 429 kts 343°
2026-04-15 06:25 40.40702 117.00907 21278 ft 425 kts 332°
2026-04-15 06:25 40.43246 116.98999 21693 ft 421 kts 321°
2026-04-15 06:26 40.45458 116.96558 22075 ft 419 kts 315°
2026-04-15 06:26 40.47592 116.93959 22445 ft 421 kts 314°
2026-04-15 06:26 40.49717 116.91341 22776 ft 422 kts 314°
2026-04-15 06:26 40.51884 116.88669 23142 ft 424 kts 314°
2026-04-15 06:27 40.54033 116.86022 23470 ft 425 kts 314°
2026-04-15 06:27 40.56180 116.83379 23781 ft 427 kts 314°
2026-04-15 06:27 40.58358 116.80697 24115 ft 428 kts 314°
2026-04-15 06:27 40.61252 116.77134 24538 ft 429 kts 314°
2026-04-15 06:28 40.62708 116.75339 24728 ft 430 kts 314°
2026-04-15 06:28 40.64882 116.72657 25024 ft 431 kts 314°
2026-04-15 06:28 40.67060 116.69968 25326 ft 432 kts 314°
2026-04-15 06:28 40.69986 116.66351 25663 ft 434 kts 314°
2026-04-15 06:29 40.71460 116.64527 25813 ft 435 kts 314°
2026-04-15 06:29 40.73639 116.61829 26043 ft 436 kts 314°
2026-04-15 06:29 40.76023 116.59320 26222 ft 443 kts 324°
2026-04-15 06:29 40.78827 116.57482 26510 ft 450 kts 335°
2026-04-15 06:30 40.81841 116.56423 26731 ft 459 kts 346°
2026-04-15 06:30 40.85057 116.56004 27023 ft 461 kts 350°
2026-04-15 06:30 40.88251 116.55701 27339 ft 461 kts 350°
2026-04-15 06:30 40.91442 116.55416 27637 ft 460 kts 350°
2026-04-15 06:31 40.94620 116.55134 27893 ft 460 kts 350°
2026-04-15 06:31 40.98899 116.54744 28321 ft 457 kts 350°
2026-04-15 06:31 41.02052 116.54453 28609 ft 456 kts 349°
2026-04-15 06:31 41.04170 116.54256 28789 ft 455 kts 349°
2026-04-15 06:32 41.07281 116.53964 29058 ft 454 kts 349°
2026-04-15 06:32 41.10457 116.53664 29304 ft 454 kts 349°
2026-04-15 06:32 41.13610 116.53371 29574 ft 453 kts 349°
2026-04-15 06:32 41.16765 116.53081 29872 ft 450 kts 348°
2026-04-15 06:33 41.19848 116.52590 30100 ft 445 kts 343°
2026-04-15 06:33 41.22849 116.51707 30290 ft 440 kts 338°
2026-04-15 06:33 41.25736 116.50461 30506 ft 434 kts 333°
2026-04-15 06:33 41.29362 116.48282 30782 ft 427 kts 326°
2026-04-15 06:34 41.31063 116.47013 30939 ft 424 kts 324°
2026-04-15 06:34 41.33595 116.45039 31237 ft 421 kts 324°
2026-04-15 06:34 41.36933 116.42402 31550 ft 419 kts 323°
2026-04-15 06:34 41.38613 116.41072 31670 ft 419 kts 323°
2026-04-15 06:35 41.41111 116.39085 31812 ft 419 kts 323°
2026-04-15 06:35 41.43604 116.37103 32042 ft 417 kts 323°
2026-04-15 06:35 41.46073 116.35143 32258 ft 415 kts 323°
2026-04-15 06:35 41.49388 116.32498 32506 ft 414 kts 323°
2026-04-15 06:36 41.51022 116.31187 32611 ft 414 kts 322°
2026-04-15 06:36 41.53473 116.29229 32769 ft 414 kts 322°
2026-04-15 06:36 41.55965 116.27237 32910 ft 414 kts 322°
2026-04-15 06:36 41.58418 116.25275 33061 ft 414 kts 323°
2026-04-15 06:37 41.60865 116.23322 33258 ft 412 kts 322°
2026-04-15 06:37 41.63336 116.21349 33426 ft 411 kts 322°
2026-04-15 06:37 41.65772 116.19405 33578 ft 411 kts 322°
2026-04-15 06:37 41.68240 116.17429 33725 ft 410 kts 322°
2026-04-15 06:38 41.70656 116.15497 33881 ft 409 kts 322°
2026-04-15 06:38 41.73107 116.13532 34023 ft 409 kts 322°
2026-04-15 06:38 41.75538 116.11582 34121 ft 408 kts 322°
2026-04-15 06:38 41.78768 116.08990 34256 ft 408 kts 322°
2026-04-15 06:39 41.80384 116.07690 34339 ft 408 kts 322°
2026-04-15 06:39 41.82833 116.05723 34459 ft 408 kts 322°
2026-04-15 06:39 41.85243 116.03784 34567 ft 407 kts 322°
2026-04-15 06:40 41.90703 115.98927 34739 ft 401 kts 315°
2026-04-15 06:40 41.94139 115.94838 34913 ft 395 kts 309°
2026-04-15 06:41 41.97732 115.89285 35018 ft 390 kts 302°
2026-04-15 06:41 42.00654 115.83207 35099 ft 387 kts 296°
2026-04-15 06:41 42.01953 115.80057 35294 ft 383 kts 296°
2026-04-15 06:42 42.03645 115.75935 35572 ft 379 kts 295°
2026-04-15 06:42 42.04904 115.72845 35791 ft 375 kts 295°
2026-04-15 06:42 42.05741 115.70778 35926 ft 372 kts 295°
2026-04-15 06:42 42.06970 115.67747 36131 ft 368 kts 295°
2026-04-15 06:43 42.08171 115.64780 36343 ft 364 kts 294°
2026-04-15 06:43 42.09379 115.61795 36509 ft 361 kts 294°
2026-04-15 06:43 42.10579 115.58823 36622 ft 360 kts 294°
2026-04-15 06:44 42.12962 115.52949 36712 ft 359 kts 294°
2026-04-15 06:44 42.15736 115.46066 36749 ft 361 kts 294°
2026-04-15 06:45 42.17728 115.41095 36698 ft 363 kts 294°
2026-04-15 06:45 42.20542 115.34051 36590 ft 369 kts 294°
2026-04-15 06:46 42.22568 115.28948 36543 ft 372 kts 294°
2026-04-15 06:46 42.24980 115.22749 36482 ft 376 kts 293°
2026-04-15 06:47 42.27349 115.16428 36421 ft 380 kts 293°
2026-04-15 06:47 42.29740 115.10043 36339 ft 385 kts 292°
2026-04-15 06:48 42.32173 115.03535 36238 ft 390 kts 292°
2026-04-15 06:48 42.34624 114.96969 36137 ft 394 kts 293°
2026-04-15 06:49 42.37523 114.89188 36004 ft 400 kts 292°
2026-04-15 06:49 42.39599 114.83602 35892 ft 404 kts 292°
2026-04-15 06:50 42.42133 114.76767 35731 ft 409 kts 292°
2026-04-15 06:50 42.43395 114.73355 35646 ft 411 kts 292°
2026-04-15 06:50 42.45950 114.66442 35544 ft 413 kts 292°
2026-04-15 06:51 42.48501 114.59512 35631 ft 411 kts 292°
2026-04-15 06:51 42.51057 114.52564 35682 ft 412 kts 292°
2026-04-15 06:52 42.53604 114.45623 35643 ft 413 kts 292°
2026-04-15 06:52 42.56141 114.38681 35656 ft 413 kts 292°
2026-04-15 06:53 42.58685 114.31705 35687 ft 413 kts 292°
2026-04-15 06:53 42.61195 114.24781 35755 ft 413 kts 292°
2026-04-15 06:54 42.63760 114.17811 35794 ft 413 kts 292°
2026-04-15 06:54 42.66423 114.10930 35833 ft 413 kts 292°
2026-04-15 06:55 42.69086 114.04029 35883 ft 413 kts 293°
2026-04-15 06:55 42.72192 113.95956 35943 ft 413 kts 292°
2026-04-15 06:56 42.74833 113.89052 35907 ft 414 kts 292°
2026-04-15 06:56 42.77045 113.83268 35914 ft 414 kts 292°
2026-04-15 06:57 42.80124 113.75176 35938 ft 414 kts 292°
2026-04-15 06:57 42.82323 113.69392 35928 ft 415 kts 292°
2026-04-15 06:58 42.85401 113.61264 35893 ft 415 kts 292°
2026-04-15 06:58 42.87602 113.55449 35903 ft 416 kts 292°
2026-04-15 06:59 42.90239 113.48454 35853 ft 417 kts 292°
2026-04-15 06:59 42.92876 113.41443 35855 ft 417 kts 292°
2026-04-15 07:00 42.95519 113.34399 35848 ft 418 kts 291°
2026-04-15 07:00 42.98154 113.27338 35877 ft 418 kts 291°
2026-04-15 07:01 43.00797 113.20259 35914 ft 418 kts 291°
2026-04-15 07:01 43.03465 113.13222 35892 ft 419 kts 291°
2026-04-15 07:02 43.06159 113.06194 35881 ft 420 kts 292°
2026-04-15 07:02 43.09310 112.97938 35956 ft 418 kts 292°
2026-04-15 07:03 43.11548 112.92097 36011 ft 418 kts 292°
2026-04-15 07:03 43.14232 112.85105 36034 ft 418 kts 292°
2026-04-15 07:04 43.16917 112.78038 36064 ft 417 kts 292°
2026-04-15 07:04 43.20027 112.69823 36080 ft 417 kts 291°
2026-04-15 07:05 43.22231 112.63978 36035 ft 418 kts 291°
2026-04-15 07:05 43.24892 112.56898 36023 ft 418 kts 292°
2026-04-15 07:06 43.27540 112.49834 36035 ft 418 kts 291°
2026-04-15 07:06 43.30197 112.42718 36010 ft 418 kts 292°
2026-04-15 07:07 43.33265 112.34489 36016 ft 418 kts 291°
2026-04-15 07:07 43.35465 112.28550 36017 ft 418 kts 291°
2026-04-15 07:08 43.38320 112.21618 36064 ft 422 kts 297°
2026-04-15 07:08 43.41902 112.15179 36125 ft 429 kts 304°
2026-04-15 07:09 43.46977 112.08498 36146 ft 439 kts 313°
2026-04-15 07:09 43.51163 112.04406 36149 ft 447 kts 319°
2026-04-15 07:10 43.56469 111.99925 36166 ft 449 kts 320°
2026-04-15 07:10 43.61790 111.95440 36133 ft 448 kts 319°
2026-04-15 07:11 43.66848 111.90580 36192 ft 440 kts 313°
2026-04-15 07:11 43.71478 111.85156 36203 ft 434 kts 309°
2026-04-15 07:12 43.75718 111.79341 36178 ft 432 kts 307°
2026-04-15 07:12 43.79917 111.73427 36185 ft 433 kts 306°
2026-04-15 07:13 43.84127 111.67470 36171 ft 433 kts 307°
2026-04-15 07:13 43.88323 111.61528 36162 ft 433 kts 307°
2026-04-15 07:14 43.92523 111.55568 36162 ft 433 kts 306°
2026-04-15 07:14 43.96722 111.49595 36163 ft 433 kts 306°
2026-04-15 07:15 44.00906 111.43630 36133 ft 433 kts 307°
2026-04-15 07:15 44.05104 111.37638 36164 ft 433 kts 306°
2026-04-15 07:16 44.09291 111.31632 36145 ft 433 kts 306°
2026-04-15 07:16 44.13461 111.25660 36188 ft 434 kts 306°
2026-04-15 07:17 44.17651 111.19663 36209 ft 433 kts 306°
2026-04-15 07:17 44.21839 111.13641 36236 ft 432 kts 306°
2026-04-15 07:18 44.26017 111.07615 36230 ft 433 kts 306°